星链-1615 (STARLINK-1615 )

导读

STARLINK-1615是美国SpaceX公司星链星座的卫星,于2020年8月18日发射升空,隶属于美国太空探索技术公司打造的星链互联网卫星星座项目。该卫星承担低轨全球卫星互联网服务任务,通过星链星座组网,可为全球范围提供高速宽带接入服务,推进全球互联网覆盖建设。

基本信息
目录编号:
46166
目录名称:
STARLINK-1615
国际标识:
2020-057BB
轨道中心:
EARTH
卫星名称:
星链-1615
卫星全名:
星链-1615 (STARLINK-1615 )
卫星状态:
已陨落 最后检测时间 2024-07-04
发射日期:
2020-08-18 UTC
国别 :
美国 (US)
星等 :
--
该卫星已列入 空间交会检测服务 Space Conjunction Data Service (SCDS) ,当前飞行风险评估等级: 无高风险
轨道信息
数据来源 国际轨道数据
星历时间: 2024-07-04T13:51:10+0800
轨道信息已过期800天
半长轴: 6561.566km
偏心率: 0.000373
轨道倾角: 53.027°
近地点辐角 205.056°
升交点赤经 142.012°
平近点角 260.408°
近地点: 180.983km
远地点: 185.879km
周期: 88.160分钟
每日圈数: 16.333962
详细信息
固有亮度:
5
最大亮度:
2.5
卫星平台:
Starlink V1.0
覆盖范围:
全球
运营商:
太空探索技术公司
运营商所在国:
美国
制造商(研发单位):
太空探索技术公司
制造商所在国:
美国
使用方式:
暂无
卫星简介
星链(Starlink)计划是由太空探索技术公司(SpaceX)提出的一个巨型低轨卫星互联网星座项目,计划在2019年至2024年间在太空搭建由约1.2万颗卫星组成的“星链”网络,其中1584颗将部署在地球上空550千米处的近地轨道,并从2020年开始工作。该卫星已陨落。
与全量物体交会距离演化趋势
与全量物体交会风险概率演化趋势